User: anonymous
Location: Deer Lake
(49.1830°N, 57.4330°W)
Time: 23:31:44
(UTC-02:-30)
Language:

Cosmos 1707 - Orbit

View from above orbital plane
View from above orbital plane
View from above satellite
View from above satellite

Ground track
Ground track

The orbit data is extracted from the following two-line orbital elements,

1 16326U 85113A   14257.40477873  .00004165  00000-0  26352-3 0    05
2 16326 082.5082 114.9955 0013198 172.7208 187.4215 15.08683764565235
Epoch (UTC): 14 September 2014 09:42:52
Eccentricity: 0.0013198
inclination: 82.5082°
perigee height: 531 km
apogee height: 549 km
right ascension of ascending node: 114.9955°
argument of perigee: 172.7208°
revolutions per day: 15.08683764
mean anomaly at epoch: 187.4215°
orbit number at epoch: 56523

The dashed part of the orbit path shows where the satellite is in the earth's shadow,  

DLR